パンスターズ彗星

470P/PanSTARRS (2023)

English version
Home page
Updated on January 4, 2024

---------------------------------------------------------------------

・ プロフィール

符号 470P/2023 O2
検出日 2023年7月30日、8月2日
検出光度 20.8等、19.9等
検出者 Pan-STARRS 1 telescope (Haleakala), J. Maikner (New Ringgold, PA, USA)

・ 写真集

・ 軌道要素

Epoch 2023 Sept. 13.0 TT = JDT 2460200.5                                        
T 2023 Dec. 18.42359 TT                                 Rudenko                 
q   2.7286526            (2000.0)            P               Q                  
n   0.10415415     Peri.  152.08176     +0.77995803     -0.60984437             
a   4.4738868      Node   246.19357     +0.54177278     +0.77037490             
e   0.3900935      Incl.    8.83705     +0.31328538     +0.18604397             
P   9.46                                                                        
>From 65 observations 2014 Nov. 17-2023 Aug. 14, mean residual 0".6.             

・ 光度変化

        m1 = 13.5 + 5 logΔ + 10.0 log r

---------------------------------------------------------------------

軌道要素はM.P.E.C. 2023-Q142に掲載されたものです。
光度グラフはComet for Windowsで作成したものです。

---------------------------------------------------------------------

Copyright(C) Seiichi Yoshida (comet@aerith.net). All rights reserved.